MYT9341 EGCC-EDDL

Flight info

Callsign MYT9341
Flight time N/A
Altitude 33000
Route DESIG L603 LAMSO/N0438F350 DCT EVELI DCT PAM P62 PISAP PISAP1A
Aircraft MD83/M-SDFGIRWY/S

Departure

Time 2026-05-07 11:05
Airport Manchester Airport (EGCC)

Arrival

Time N/A
Airport Düsseldorf Airport (EDDL)
Time Latitude Longitude Altitude Speed Heading
2026-05-07 10:32 53.36153 -2.26676 256 ft 0 kts 326°
2026-05-07 10:52 53.36142 -2.26664 256 ft 4 kts 326°
2026-05-07 10:53 53.36119 -2.26639 256 ft 3 kts 326°
2026-05-07 10:53 53.36103 -2.26618 256 ft 4 kts 304°
2026-05-07 10:53 53.36098 -2.26585 256 ft 4 kts 253°
2026-05-07 10:53 53.36109 -2.26548 256 ft 4 kts 231°
2026-05-07 10:54 53.36126 -2.26515 256 ft 4 kts 231°
2026-05-07 10:54 53.36141 -2.26482 256 ft 2 kts 231°
2026-05-07 10:54 53.36142 -2.26480 256 ft 0 kts 231°
2026-05-07 10:57 53.36137 -2.26491 256 ft 4 kts 230°
2026-05-07 10:58 53.36123 -2.26518 256 ft 2 kts 231°
2026-05-07 10:58 53.36119 -2.26526 256 ft 0 kts 231°
2026-05-07 10:58 53.36100 -2.26568 256 ft 9 kts 234°
2026-05-07 10:58 53.36070 -2.26643 256 ft 7 kts 238°
2026-05-07 10:59 53.36051 -2.26696 256 ft 4 kts 238°
2026-05-07 10:59 53.36040 -2.26721 256 ft 1 kts 231°
2026-05-07 10:59 53.36039 -2.26724 256 ft 0 kts 231°
2026-05-07 10:59 53.36004 -2.26797 256 ft 11 kts 227°
2026-05-07 11:00 53.35954 -2.26830 256 ft 5 kts 164°
2026-05-07 11:00 53.35908 -2.26737 257 ft 13 kts 134°
2026-05-07 11:00 53.35849 -2.26692 266 ft 11 kts 169°
2026-05-07 11:00 53.35760 -2.26665 270 ft 12 kts 170°
2026-05-07 11:01 53.35687 -2.26643 270 ft 9 kts 170°
2026-05-07 11:01 53.35627 -2.26625 268 ft 9 kts 172°
2026-05-07 11:01 53.35562 -2.26650 263 ft 11 kts 215°
2026-05-07 11:01 53.35508 -2.26749 258 ft 12 kts 229°
2026-05-07 11:02 53.35455 -2.26861 254 ft 13 kts 232°
2026-05-07 11:02 53.35390 -2.26999 248 ft 17 kts 232°
2026-05-07 11:02 53.35312 -2.27163 243 ft 20 kts 231°
2026-05-07 11:02 53.35237 -2.27308 239 ft 9 kts 231°
2026-05-07 11:03 53.35192 -2.27403 238 ft 12 kts 232°
2026-05-07 11:03 53.35126 -2.27508 234 ft 15 kts 200°
2026-05-07 11:03 53.35011 -2.27474 228 ft 19 kts 167°
2026-05-07 11:03 53.34909 -2.27516 223 ft 13 kts 225°
2026-05-07 11:04 53.34855 -2.27640 223 ft 13 kts 231°
2026-05-07 11:04 53.34800 -2.27755 224 ft 14 kts 231°
2026-05-07 11:04 53.34628 -2.28105 228 ft 74 kts 231°
2026-05-07 11:04 53.34151 -2.29094 233 ft 142 kts 231°
2026-05-07 11:05 53.33480 -2.30470 397 ft 180 kts 230°
2026-05-07 11:05 53.32672 -2.32099 1242 ft 174 kts 225°
2026-05-07 11:05 53.31897 -2.33576 2316 ft 170 kts 223°
2026-05-07 11:05 53.31319 -2.34520 2790 ft 180 kts 219°
2026-05-07 11:06 53.30410 -2.35996 3637 ft 183 kts 230°
2026-05-07 11:06 53.29766 -2.37810 4619 ft 183 kts 247°
2026-05-07 11:06 53.29520 -2.39941 5443 ft 194 kts 269°
2026-05-07 11:06 53.29885 -2.42191 6102 ft 215 kts 302°
2026-05-07 11:07 53.31210 -2.43679 6369 ft 257 kts 341°
2026-05-07 11:07 53.33130 -2.43721 6445 ft 282 kts 19°
2026-05-07 11:07 53.34656 -2.42181 7916 ft 242 kts 33°
2026-05-07 11:07 53.36239 -2.41023 8366 ft 265 kts
2026-05-07 11:08 53.38156 -2.41157 8636 ft 282 kts 339°
2026-05-07 11:08 53.39896 -2.42111 10209 ft 249 kts 342°
2026-05-07 11:08 53.41590 -2.42928 10777 ft 263 kts 337°
2026-05-07 11:08 53.43346 -2.44218 10895 ft 289 kts 334°
2026-05-07 11:09 53.45385 -2.44989 11038 ft 316 kts
2026-05-07 11:09 53.47595 -2.44211 11236 ft 338 kts 25°
2026-05-07 11:09 53.49574 -2.41941 11460 ft 356 kts 47°
2026-05-07 11:09 53.51022 -2.38479 11669 ft 371 kts 67°
2026-05-07 11:10 53.51693 -2.34274 12132 ft 377 kts 88°
2026-05-07 11:10 53.51474 -2.29923 12855 ft 374 kts 108°
2026-05-07 11:10 53.50661 -2.25768 13591 ft 378 kts 105°
2026-05-07 11:10 53.50320 -2.21352 14240 ft 384 kts 95°
2026-05-07 11:11 53.50175 -2.16858 14897 ft 387 kts 94°
2026-05-07 11:11 53.49966 -2.12341 15530 ft 390 kts 98°
2026-05-07 11:11 53.49654 -2.07795 16118 ft 394 kts 98°
2026-05-07 11:11 53.49348 -2.03210 16708 ft 398 kts 97°
2026-05-07 11:12 53.49077 -1.98566 17384 ft 401 kts 96°
2026-05-07 11:12 53.48844 -1.93883 17995 ft 405 kts 96°
2026-05-07 11:12 53.48632 -1.89114 18543 ft 410 kts 96°
2026-05-07 11:12 53.48431 -1.84327 18812 ft 415 kts 95°
2026-05-07 11:13 53.48239 -1.79494 18939 ft 415 kts 95°
2026-05-07 11:13 53.48043 -1.74680 19005 ft 411 kts 96°
2026-05-07 11:13 53.47844 -1.69905 19034 ft 409 kts 95°
2026-05-07 11:13 53.47649 -1.65146 19055 ft 412 kts 95°
2026-05-07 11:14 53.47445 -1.60333 19487 ft 416 kts 97°
2026-05-07 11:14 53.46914 -1.55709 20211 ft 412 kts 107°
2026-05-07 11:14 53.46095 -1.51103 20864 ft 412 kts 109°
2026-05-07 11:14 53.45219 -1.46511 21425 ft 415 kts 109°
2026-05-07 11:15 53.44335 -1.41882 21990 ft 418 kts 109°
2026-05-07 11:15 53.43457 -1.37225 22565 ft 420 kts 109°
2026-05-07 11:15 53.42587 -1.32531 23139 ft 422 kts 108°
2026-05-07 11:15 53.41732 -1.27867 23646 ft 426 kts 108°
2026-05-07 11:16 53.40850 -1.23045 24096 ft 429 kts 108°
2026-05-07 11:16 53.39988 -1.18319 24544 ft 431 kts 108°
2026-05-07 11:16 53.39111 -1.13508 25003 ft 433 kts 108°
2026-05-07 11:16 53.38227 -1.08668 25418 ft 436 kts 108°
2026-05-07 11:17 53.37338 -1.03807 25854 ft 438 kts 108°
2026-05-07 11:17 53.36440 -0.98918 26304 ft 440 kts 108°
2026-05-07 11:17 53.35535 -0.94010 26692 ft 443 kts 108°
2026-05-07 11:17 53.34621 -0.89059 27094 ft 446 kts 108°
2026-05-07 11:18 53.33711 -0.84120 27743 ft 442 kts 108°
2026-05-07 11:18 53.32810 -0.79231 28414 ft 438 kts 108°
2026-05-07 11:18 53.31913 -0.74372 28957 ft 437 kts 107°
2026-05-07 11:18 53.31017 -0.69525 29466 ft 436 kts 107°
2026-05-07 11:19 53.30121 -0.64705 30080 ft 433 kts 107°
2026-05-07 11:19 53.29218 -0.59918 30482 ft 432 kts 108°
2026-05-07 11:19 53.28308 -0.55123 30881 ft 431 kts 108°
2026-05-07 11:19 53.27405 -0.50360 31358 ft 428 kts 108°
2026-05-07 11:20 53.26512 -0.45629 31809 ft 426 kts 108°
2026-05-07 11:20 53.25621 -0.40922 32219 ft 424 kts 107°
2026-05-07 11:20 53.24729 -0.36234 32616 ft 423 kts 107°
2026-05-07 11:20 53.23838 -0.31562 32874 ft 422 kts 107°
2026-05-07 11:21 53.22949 -0.26901 32981 ft 420 kts 108°
2026-05-07 11:21 53.22061 -0.22260 33033 ft 419 kts 107°
2026-05-07 11:21 53.20289 -0.13028 33066 ft 416 kts 108°
2026-05-07 11:22 53.18524 -0.03852 33074 ft 415 kts 107°
2026-05-07 11:22 53.16739 0.05319 33069 ft 417 kts 108°
2026-05-07 11:23 53.14930 0.14518 33069 ft 418 kts 108°
2026-05-07 11:23 53.13116 0.23725 33075 ft 418 kts 108°
2026-05-07 11:24 53.11304 0.32918 33074 ft 417 kts 108°
2026-05-07 11:24 53.09499 0.42072 33080 ft 416 kts 108°
2026-05-07 11:25 53.07694 0.51220 33083 ft 417 kts 107°
2026-05-07 11:25 53.05892 0.60331 33084 ft 418 kts 107°
2026-05-07 11:26 53.04045 0.69510 33089 ft 419 kts 108°
2026-05-07 11:26 53.02153 0.78657 33089 ft 418 kts 108°
2026-05-07 11:27 53.00305 0.87785 33100 ft 416 kts 108°
2026-05-07 11:27 52.98488 0.96889 33094 ft 415 kts 108°
2026-05-07 11:28 52.96990 1.06174 33100 ft 414 kts 100°
2026-05-07 11:28 52.95970 1.15523 33099 ft 415 kts 99°
2026-05-07 11:29 52.94950 1.24959 33102 ft 416 kts 100°
2026-05-07 11:29 52.93873 1.34373 33102 ft 416 kts 100°
2026-05-07 11:30 52.92761 1.43795 33102 ft 417 kts 101°
2026-05-07 11:30 52.91645 1.53207 33102 ft 416 kts 100°
2026-05-07 11:31 52.90534 1.62610 33104 ft 415 kts 100°
2026-05-07 11:31 52.89428 1.71986 33106 ft 415 kts 101°
2026-05-07 11:32 52.87683 1.86038 33108 ft 416 kts 101°
2026-05-07 11:33 52.86514 1.95420 33108 ft 416 kts 101°
2026-05-07 11:33 52.85363 2.04720 33108 ft 416 kts 101°
2026-05-07 11:34 52.84204 2.14118 33112 ft 417 kts 100°
2026-05-07 11:34 52.83045 2.23522 33108 ft 417 kts 101°
2026-05-07 11:35 52.81886 2.32914 33110 ft 417 kts 101°
2026-05-07 11:35 52.80712 2.42312 33111 ft 418 kts 101°
2026-05-07 11:36 52.79520 2.51710 33115 ft 418 kts 101°
2026-05-07 11:36 52.78284 2.61094 33114 ft 418 kts 101°
2026-05-07 11:37 52.77055 2.70410 33110 ft 418 kts 101°
2026-05-07 11:37 52.75839 2.79790 33111 ft 418 kts 101°
2026-05-07 11:38 52.74614 2.89153 33115 ft 418 kts 101°
2026-05-07 11:38 52.73383 2.98519 33113 ft 417 kts 102°
2026-05-07 11:39 52.71493 3.07611 33108 ft 423 kts 111°
2026-05-07 11:39 52.69258 3.16652 33105 ft 427 kts 111°
2026-05-07 11:40 52.67050 3.25708 33106 ft 425 kts 110°
2026-05-07 11:40 52.64909 3.34735 33105 ft 422 kts 110°
2026-05-07 11:41 52.62973 3.43855 33102 ft 423 kts 105°
2026-05-07 11:41 52.61427 3.53205 33102 ft 424 kts 104°
2026-05-07 11:42 52.59881 3.62611 33100 ft 427 kts 105°
2026-05-07 11:42 52.58280 3.71959 33099 ft 428 kts 105°
2026-05-07 11:43 52.56818 3.80312 33102 ft 427 kts 105°
2026-05-07 11:43 52.55181 3.89653 33102 ft 425 kts 105°
2026-05-07 11:44 52.53552 3.98978 33100 ft 425 kts 105°
2026-05-07 11:44 52.51911 4.08378 33098 ft 431 kts 105°
2026-05-07 11:45 52.50211 4.17779 33093 ft 430 kts 106°
2026-05-07 11:45 52.48496 4.27185 33084 ft 431 kts 106°
2026-05-07 11:46 52.46791 4.36605 33086 ft 431 kts 106°
2026-05-07 11:46 52.45093 4.46017 33077 ft 430 kts 106°
2026-05-07 11:47 52.43401 4.55410 33074 ft 431 kts 107°
2026-05-07 11:47 52.41694 4.64913 33073 ft 437 kts 107°
2026-05-07 11:48 52.39940 4.74433 33073 ft 435 kts 108°
2026-05-07 11:48 52.38100 4.83853 33075 ft 433 kts 108°
2026-05-07 11:49 52.36339 4.93285 33075 ft 434 kts 107°
2026-05-07 11:49 52.34630 5.02799 33073 ft 438 kts 108°
2026-05-07 11:50 52.32741 5.12262 33071 ft 437 kts 115°
2026-05-07 11:50 52.30097 5.21171 33070 ft 435 kts 117°
2026-05-07 11:51 52.27409 5.30056 33072 ft 438 kts 117°
2026-05-07 11:51 52.25219 5.37503 33071 ft 438 kts 117°
2026-05-07 11:52 52.22633 5.46516 33068 ft 440 kts 116°
2026-05-07 11:52 52.20035 5.55575 33064 ft 440 kts 116°
2026-05-07 11:53 52.17440 5.64575 33065 ft 438 kts 117°
2026-05-07 11:53 52.14843 5.73545 33072 ft 438 kts 116°
2026-05-07 11:54 52.12212 5.82496 33073 ft 440 kts 117°
2026-05-07 11:54 52.09521 5.91529 32462 ft 448 kts 117°
2026-05-07 11:54 52.08169 5.96083 31858 ft 445 kts 117°
2026-05-07 11:55 52.06832 6.00605 31167 ft 443 kts 116°
2026-05-07 11:55 52.05503 6.05115 30439 ft 442 kts 116°
2026-05-07 11:55 52.04180 6.09602 29618 ft 441 kts 116°
2026-05-07 11:55 52.02858 6.14085 28758 ft 438 kts 116°
2026-05-07 11:56 52.01544 6.18524 28001 ft 434 kts 117°
2026-05-07 11:56 52.00232 6.22909 27305 ft 429 kts 117°
2026-05-07 11:56 51.98930 6.27232 26628 ft 424 kts 117°
2026-05-07 11:56 51.97639 6.31502 25976 ft 419 kts 117°
2026-05-07 11:57 51.96363 6.35731 25337 ft 415 kts 117°
2026-05-07 11:57 51.95101 6.39919 24678 ft 412 kts 117°
2026-05-07 11:57 51.93845 6.44081 24028 ft 409 kts 117°
2026-05-07 11:57 51.92600 6.48205 23321 ft 407 kts 117°
2026-05-07 11:58 51.91360 6.52311 22602 ft 404 kts 117°
2026-05-07 11:58 51.89995 6.56236 21949 ft 397 kts 130°
2026-05-07 11:58 51.88002 6.59214 21399 ft 387 kts 150°
2026-05-07 11:58 51.85581 6.61028 20744 ft 381 kts 161°
2026-05-07 11:59 51.83084 6.62409 20104 ft 378 kts 163°
2026-05-07 11:59 51.80591 6.63671 19491 ft 374 kts 165°
2026-05-07 11:59 51.78112 6.64658 18902 ft 370 kts 172°
2026-05-07 11:59 51.75575 6.65210 18302 ft 366 kts 175°
2026-05-07 12:00 51.73051 6.65638 17627 ft 363 kts 175°
2026-05-07 12:00 51.70554 6.66066 17003 ft 359 kts 175°
2026-05-07 12:00 51.68081 6.66521 16397 ft 355 kts 174°
2026-05-07 12:00 51.65646 6.67002 15833 ft 350 kts 174°
2026-05-07 12:01 51.63245 6.67514 15280 ft 347 kts 174°
2026-05-07 12:01 51.60849 6.68041 14726 ft 349 kts 173°
2026-05-07 12:01 51.58446 6.68588 14150 ft 348 kts 174°
2026-05-07 12:01 51.56043 6.69139 13571 ft 348 kts 174°
2026-05-07 12:02 51.53653 6.69679 12931 ft 345 kts 173°
2026-05-07 12:02 51.51293 6.70207 12325 ft 339 kts 174°
2026-05-07 12:02 51.48973 6.70734 11755 ft 333 kts 172°
2026-05-07 12:02 51.46690 6.71238 11069 ft 331 kts 173°
2026-05-07 12:03 51.44411 6.71733 10486 ft 327 kts 173°
2026-05-07 12:03 51.42212 6.71811 10303 ft 308 kts 194°
2026-05-07 12:03 51.40367 6.70342 10140 ft 290 kts 218°
2026-05-07 12:03 51.38818 6.68353 9697 ft 286 kts 220°
2026-05-07 12:04 51.37288 6.66313 8858 ft 286 kts 221°
2026-05-07 12:04 51.35775 6.64255 8054 ft 285 kts 221°
2026-05-07 12:04 51.34276 6.62170 7266 ft 285 kts 223°
2026-05-07 12:04 51.32802 6.60114 6506 ft 284 kts 222°
2026-05-07 12:05 51.31313 6.58039 5701 ft 284 kts 222°
2026-05-07 12:05 51.29821 6.55968 4909 ft 284 kts 222°
2026-05-07 12:05 51.28330 6.53882 4166 ft 286 kts 223°
2026-05-07 12:05 51.26839 6.51793 3570 ft 282 kts 222°
2026-05-07 12:06 51.25397 6.49804 3292 ft 265 kts 222°
2026-05-07 12:06 51.23991 6.48038 3148 ft 253 kts 208°
2026-05-07 12:06 51.22299 6.47322 3132 ft 257 kts 176°
2026-05-07 12:06 51.20601 6.48163 3162 ft 255 kts 143°
2026-05-07 12:07 51.19396 6.50209 3225 ft 259 kts 116°
2026-05-07 12:07 51.18894 6.52876 3161 ft 249 kts 86°
2026-05-07 12:07 51.19291 6.55507 3202 ft 243 kts 56°
2026-05-07 12:07 51.20258 6.57708 3284 ft 243 kts 53°
2026-05-07 12:08 51.21070 6.59935 3615 ft 215 kts 65°
2026-05-07 12:08 51.21748 6.61880 3503 ft 198 kts 42°
2026-05-07 12:08 51.22676 6.63322 3961 ft 183 kts 48°
2026-05-07 12:08 51.23363 6.65115 4225 ft 177 kts 63°
2026-05-07 12:09 51.23693 6.67106 4273 ft 191 kts 72°